Location: Unspecified
(0.0000°N, 0.0000°E)
Time: 15:54:38
(UTC+00:00)

deb Delta 126 - Pass Details

Date: 23 February 2026
Orbit: 1502 x 2092 km, 101.9° (Epoch: 4 March)

Event Time Altitude Azimuth Distance (km) Brightness Sun altitude
Rises 05:29:52 0° 336° (NNW) 4,754 ? -10.7°
Reaches altitude 10° 05:34:42 10° 312° (NW) 3,866 ? -9.5°
Maximum altitude 05:38:41 14° 286° (WNW) 3,666 ? -8.5°
Drops below altitude 10° 05:42:51 10° 259° (W) 4,056 ? -7.5°
Sets 05:48:18 0° 236° (SW) 5,181 ? -6.2°
